RH
70 71 70 69 68 68 69 72 76 78 78 77 80 80 81 87 64 66 69 75 77 78 76 74 73 76 76 76 78 81 81 80 80
66 69 70 70 70 70 70 70 70 70 75 78 78 81 89 78 68 66 69 73 81 78 76 76 75 74 75 76 76 81 81 80 80
59 60 62 63 65 64 66 68 70 71 71 71 76 81 87 78 74 67 66 74 84 78 74 74 73 74 74 75 77 80 81 81 80
59 59 58 59 60 59 59 62 65 70 74 74 76 78 83 79 73 71 66 78 83 77 74 72 73 74 75 78 79 82 82 82 83
61 60 59 60 60 60 59 59 60 62 68 73 76 79 79 70 75 74 72 83 82 77 75 72 74 74 78 81 81 84 83 84 85
47 57 56 57 57 58 59 60 61 62 64 65 66 70 61 67 71 72 80 84 83 80 76 76 76 76 80 82 83 86 84 84 85
49 56 56 60 58 60 60 62 64 62 55 52 62 58 59 63 68 71 82 81 79 80 78 79 79 79 81 83 83 86 83 85 85
46 45 42 48 50 45 49 54 51 59 58 58 57 58 59 62 66 67 79 83 80 78 82 80 80 81 83 84 84 84 87 86 84
44 42 43 44 46 53 52 61 59 57 56 56 57 56 57 57 59 63 71 79 82 80 78 84 80 79 82 82 85 87 91 90 85
45 43 43 44 46 46 52 60 60 60 58 57 59 59 56 57 60 67 70 72 78 79 80 77 81 80 80 82 86 94 94 92 89
48 49 49 48 50 50 56 62 63 62 62 62 60 59 61 62 64 65 68 70 72 76 78 78 76 80 82 82 85 86 85 88 89
44 48 47 48 49 51 52 54 56 57 54 59 56 59 61 64 62 62 64 69 69 75 76 77 76 76 76 80 88 87 82 80 81
44 46 44 47 47 48 48 46 49 50 50 52 52 56 58 55 57 61 61 65 68 70 73 78 78 77 77 80 83 92 94 89 84
43 46 49 48 49 49 47 47 54 57 55 50 48 49 48 57 48 56 61 66 75 75 74 82 86 85 84 83 77 84 86 90 94
44 47 50 50 52 51 49 51 51 55 60 56 54 55 50 49 54 65 70 76 81 81 75 83 84 87 87 81 74 76 80 92 94
49 51 49 51 54 54 53 56 59 59 58 70 61 52 50 53 57 58 63 69 69 82 84 80 89 87 88 86 82 75 78 87 93
46 50 53 53 57 57 57 60 67 63 58 76 74 69 57 68 52 47 56 66 76 77 75 80 81 90 90 88 84 79 82 86 84
53 52 53 54 56 59 59 63 69 73 60 65 76 72 65 74 52 51 57 58 89 81 74 77 76 85 88 93 89 88 85 84 83
54 57 55 56 57 58 59 53 63 69 73 66 59 66 73 80 74 52 53 54 73 87 78 76 76 78 92 94 90 91 90 90 87
53 56 56 57 58 58 59 62 63 65 73 74 72 70 70 69 80 82 72 67 69 82 82 74 83 78 87 97 95 97 91 88 87
Wind_Speed
20 20 20 19 19 20 20 20 20 19 19 18 16 17 14 11 11 10 10 10 12 14 14 15 14 15 16 16 16 16 17 18 18
20 20 20 20 20 20 21 21 21 21 21 20 21 21 16 13 12 11 11 11 15 17 18 18 19 18 19 18 18 18 20 20 21
20 20 20 20 20 20 21 21 21 21 21 21 21 21 18 14 14 13 11 14 17 19 21 21 20 23 22 20 19 20 22 22 23
20 19 21 20 20 20 20 21 21 20 20 19 19 20 19 14 10 13 10 14 19 22 22 22 21 19 22 21 20 22 23 23 23
19 19 20 20 20 21 21 21 20 20 19 18 19 19 18 11 12 10 10 17 21 23 23 23 22 22 22 23 22 23 23 23 23
14 16 19 21 20 20 21 21 22 21 17 18 19 18 8 11 10 8 15 19 22 24 24 22 23 22 21 24 25 25 25 24 24
11 13 18 19 19 19 21 20 20 16 10 9 14 8 11 9 10 9 19 22 23 23 24 23 22 22 22 24 26 27 27 25 24
8 7 8 9 14 9 12 12 9 12 10 10 10 11 10 8 8 12 21 24 24 24 23 25 24 23 24 24 26 28 27 25 24
9 8 10 9 8 11 10 8 12 13 13 13 14 13 11 8 8 11 21 23 25 24 23 24 27 25 25 26 27 26 27 26 24
9 9 9 9 10 10 11 10 11 12 14 13 14 14 15 14 9 7 20 23 24 25 24 25 25 28 28 28 28 23 18 21 25
9 9 9 9 9 10 10 10 11 11 11 13 14 15 14 15 14 10 11 22 24 25 25 25 25 28 30 32 32 31 30 29 25
10 8 9 9 10 12 10 11 10 10 11 14 13 13 15 14 16 13 11 13 21 23 26 25 25 27 30 35 30 19 25 27 29
10 8 9 9 10 10 10 10 11 11 12 12 12 11 13 17 16 14 12 11 11 15 22 24 24 26 26 18 18 18 20 27 28
9 8 9 10 9 9 10 10 11 12 12 13 13 13 13 14 14 16 15 15 12 10 17 21 21 24 26 20 16 10 25 32 42
10 9 10 10 10 10 10 13 12 12 12 13 14 12 13 13 12 12 10 12 9 13 14 11 11 18 20 25 21 18 14 23 33
10 8 10 10 9 11 12 11 13 10 11 11 13 12 14 13 9 7 9 7 9 12 9 8 7 8 19 24 24 21 18 17 34
9 10 9 10 9 11 11 11 10 9 9 9 12 9 11 5 11 11 9 10 8 10 11 11 10 10 8 13 21 22 22 20 28
11 11 10 10 9 9 11 10 11 11 9 9 6 7 6 14 7 14 9 13 6 8 12 12 10 10 10 12 16 22 22 22 27
11 11 11 10 9 10 10 10 11 11 11 8 7 10 11 7 12 7 13 11 8 8 10 12 11 12 9 12 15 17 24 22 22
11 11 11 11 9 10 12 12 11 10 10 9 8 10 9 11 10 15 11 11 8 3 10 12 9 11 12 7 13 16 18 18 19
Wind_Direction
24 18 14 11 8 2 357 353 348 347 344 332 327 317 313 302 287 272 261 252 253 252 251 257 245 240 235 227 217 213 200 190 181
23 19 15 10 8 3 359 356 349 344 340 337 335 334 334 319 286 271 264 257 251 252 251 245 254 248 235 226 220 214 206 194 184
24 20 15 10 7 2 359 354 350 346 342 337 334 330 329 317 296 280 268 259 253 256 253 251 252 256 236 228 217 215 207 196 189
22 19 15 9 5 1 358 353 350 347 342 338 334 329 326 310 297 289 275 263 257 258 256 254 254 240 237 233 218 214 207 194 191
16 12 8 4 1 358 354 350 347 345 342 339 334 331 318 323 308 298 285 281 271 263 258 253 252 243 235 231 221 212 203 194 192
11 5 4 1 357 353 349 347 344 343 337 336 334 328 322 317 305 296 292 290 280 269 262 253 253 249 232 226 220 211 200 192 189
6 2 0 358 354 349 347 344 340 341 333 329 331 324 318 310 303 296 298 293 286 276 266 258 254 251 236 221 215 210 205 194 191
4 354 354 350 350 347 342 339 337 330 325 322 319 316 315 306 301 298 296 294 288 284 274 264 254 250 236 221 212 209 204 199 195
358 353 349 346 342 335 338 332 328 326 322 317 312 310 306 301 296 293 292 291 290 286 279 275 263 251 235 225 214 208 203 198 199
349 346 342 340 338 336 331 328 326 322 319 314 309 306 303 300 292 286 289 287 284 283 280 271 270 262 244 230 215 212 191 204 204
349 340 337 335 335 329 324 320 318 314 309 306 306 303 298 293 290 287 286 283 280 278 277 272 268 264 258 240 223 204 199 203 216
344 335 332 330 327 321 318 318 313 311 309 305 302 299 296 292 291 286 279 283 279 272 274 272 270 268 256 255 254 213 214 213 210
340 330 323 324 323 321 321 320 321 315 313 310 305 299 295 292 286 282 279 275 277 277 269 270 273 274 262 275 268 228 299 221 223
331 323 322 325 319 321 325 323 318 315 314 310 307 300 291 285 284 279 281 274 274 274 273 271 273 271 249 243 250 241 247 262 287
335 326 326 330 327 324 325 321 322 316 315 315 304 300 289 280 275 281 281 272 301 284 277 280 274 263 250 256 251 237 259 242 245
325 321 326 324 318 319 317 317 318 318 324 319 316 307 282 280 286 289 292 332 343 329 291 275 274 271 254 248 246 240 236 262 290
324 326 319 317 315 314 314 315 314 310 324 314 309 315 315 13 320 303 325 341 330 339 326 329 325 270 251 234 237 242 238 240 273
320 319 316 319 316 312 313 311 307 310 309 304 298 309 307 329 289 319 307 333 329 338 324 324 327 306 300 226 223 233 239 239 259
313 312 313 311 309 305 306 305 305 301 300 301 285 282 292 296 310 303 313 301 318 343 319 313 316 325 306 249 219 225 227 232 250
304 306 309 308 305 302 302 302 300 294 291 291 294 290 288 281 272 293 312 318 321 315 318 306 314 315 313 297 221 209 220 232 237